Preview of NWS' New Version of Forecast
This preview is not operational and should not be used for support decisions.

Regional Weather Roundup (RWR)

Issued by National Weather Service (NWS)

                            
000
ASUS44 KJAN 161510
RWRMS 

MISSISSIPPI HOURLY WEATHER ROUNDUP
NATIONAL WEATHER SERVICE JACKSON MS
900 AM CST SAT FEB 16 2019

NOTE: "FAIR: INDICATES FEW OR NO CLOUDS BELOW 12,000 FEET WITH NO
SIGNIFICANT WEATHER AND/OR OBSTRUCTIONS TO VISIBILITY.

MSZ001>002-007>008-010>013-018>021-025>028-034>036-161600-
NORTHWEST MISSISSIPPI
  
CITY           SKY/WX    TMP DP  RH WIND       PRES   REMARKS
BATESVILLE     CLOUDY    36  34  93 NE6G12    29.96R WCI  31          
CLARKSDALE     CLOUDY    34  34 100 N13       29.99S WCI  25          
CLEVELAND      CLOUDY    33  33 100 N12       29.98R FOG     WCI  25  
GREENWOOD      CLOUDY    39  37  92 N9        29.95F WCI  33          
GREENVILLE     CLOUDY    36  33  89 NE14      29.96S WCI  27          
OLIVE BRANCH   CLOUDY    32  30  93 N12G17    29.97F WCI  23          
OXFORD         CLOUDY    34  32  93 N7        29.97S WCI  28          
TUNICA           N/A     32  30  93 N13       29.98F WCI  22          
WINONA         CLOUDY    38  38  99 N8        29.93F WCI  32          
$$

MSZ003>006-009-014>017-022>024-029>033-037>039-161600-
NORTHEAST MISSISSIPPI
  
CITY           SKY/WX    TMP DP  RH WIND       PRES   REMARKS
ABERDEEN       CLOUDY    39  39 100 N9        29.94S WCI  33          
COLUMBUS AFB   CLOUDY    41  38  89 N12       29.92R                  
CORINTH        CLOUDY    36  32  87 N9        29.95S WCI  29          
GOLDN TRIANGLE CLOUDY    41  39  93 N14       29.92S                  
STARKVILLE     CLOUDY    39  37  93 N7        29.93S WCI  34          
TUPELO         CLOUDY    38  35  89 N12       29.94R WCI  30          
$$

MSZ040-058-161600-
CENTRAL MISSISSIPPI
  
CITY           SKY/WX    TMP DP  RH WIND       PRES   REMARKS
JACKSON INTL   CLOUDY    43  38  82 N10       29.92R                  
JACKSON HAWKNS CLOUDY    41  40  96 N7        29.93R                  
MADISON        CLOUDY    37  37 100 N3        29.93R                  
MERIDIAN KEY   CLOUDY    53  49  86 NW8       29.88R                  
MERIDIAN NAS   CLOUDY    50  46  86 N7        29.90R                  
RAYMOND          N/A     41  41 100 NW8       29.92F                  
VICKSBURG VKS  CLOUDY    41  39  93 N10       29.94S                  
$$

MSZ059>079-161600-
SOUTH MISSISSIPPI
  
CITY           SKY/WX    TMP DP  RH WIND       PRES   REMARKS
HATTIESBURG    CLOUDY    59  55  87 N8        29.87S                  
LAUREL         CLOUDY    55  52  90 NW6       29.88R                  
MCCOMB         CLOUDY    52  47  83 N6        29.87R                  
NATCHEZ        CLOUDY    45  41  86 N10       29.91S                  
PINE BELT      CLOUDY    56  53  90 NW8       29.88S                  
$$

MSZ080>082-161600-
COASTAL MISSISSIPPI
  
CITY           SKY/WX    TMP DP  RH WIND       PRES   REMARKS
BAY ST LOUIS   PTSUNNY   66  64  94 SW5       29.86R FOG              
BILOXI         CLOUDY    64  64 100 SW3       29.85S                  
PASCAGOULA     CLOUDY    67  63  87 CALM      29.86R                  
GULFPORT       CLOUDY    66  65  96 CALM      29.85R                  
$$

LAZ007>009-015>016-023>026-161600-
NORTHEAST LOUISIANA
  
CITY           SKY/WX    TMP DP  RH WIND       PRES   REMARKS
BASTROP        CLOUDY    38  37  97 E7        29.98R WCI  33          
TALLULAH/VBURG CLOUDY    40  37  89 N13       29.94F WCI  32          
VIDALIA        CLOUDY    45  41  87 N12       29.91S                  
$$